Location: Bord�res
(43.2000°N, 0.2167°W)
Time: 14:15:52
(UTC+00:00)

SME Rocket - Pass Details

Date: 03 March 2021
Orbit: 550 x 2652 km, 99.9° (Epoch: 20 April)

Event Time Altitude Azimuth Distance (km) Brightness Sun altitude
Rises 19:08:35 0° 18° (NNE) 4,830 7.5 -14.6°
Reaches altitude 10° 19:12:12 10° 24° (NNE) 3,504 6.7 -15.3°
Maximum altitude 19:19:29 43° 94° (E) 1,384 4.3 -16.6°
Drops below altitude 10° 19:24:22 10° 166° (SSE) 2,350 5.8 -17.5°
Sets 19:26:23 0° 174° (S) 3,109 6.5 -17.8°
